STARLINK-11270, 60999

Orbit data source: Space-Track

STARLINK-11270, 60999 is a payload satellite owned by SpaceX/Seattle (US) in LEO that was launched on Thu, 05 Sep 2024 UTC via an FALCON 9 launch vehicle from the Air Force Eastern Test Range (AFETR). Payloads include a variety of satellites, spacecraft, and rockets equipped with specific instruments for various scientific and technological missions. These include communications satellites like Starlink; space stations such as the ISS; scientific satellites like the Hubble; Earth observation satellites from companies like Planet Labs, Umbra, and HawkEye 360; GPS; miniature CubeSats for education and research; and military/defense satellites.

Loading next visibility...
STARLINK-11270 details
Identifier
60999, 2024-158K
Orbit
LEO
Last TLE update22 hours ago
Origin
Flag of USSpaceX/Seattle (US)
ManufacturerSpaceX/Seattle
MissionOperational spacecraft
Bus & MotorSTARLINK V2M, Unknown motor
Mass730 kg wet, ~700 kg dry
Launch date (UTC)
2024-09-05 (3 months ago)
Launch vehicle
FALCON 9
Launch site
Air Force Eastern Test Range (AFETR)
Object type
Payload
Rocket body
Debris
Shape & HBRUnknown
Radar Cross SectionLarge (>1 m²)

Expand to show TLE details & history

TLE from 22 hours ago
0 STARLINK-11270
1 60999U 24158K   24336.49524973 -.00003707  00000-0 -25743-4 0  9998
2 60999  53.1598  44.7213 0001399  83.5742 276.5435 15.69713855 14858
Epoch: 2024-12-01T11:53Z
Definitive object data (Epoch: 2024-12-01T11:53:09.576Z)
Latitude-0.00005°
Longitude155.59872°
Altitude360.523 km
Speed7.694 km/s
True Right ascension02h 58m 53s
True Declination0° 00' 00"
Sunlit
Object was in full shadow at TLE epoch
Visualization TLE readout
Latitude-51.97197°
Longitude43.26441°
Altitude378.675 km
Speed7.682 km/s
Apparent Right ascension19h 50m 59s
Apparent Declination-46° 02' 27"
Sunlit
Object is in daylight
Visualization observer readout
Local Sidereal Time08:09:14
Azimuth152.94° SSE
Elevation-83.027°
Doppler factor1
Orbital elements
Apogee altitude360.919 km
Perigee altitude359.034 km
Semi-major axis6,738.113 km
Eccentricity0.0001399
Inclination53.1598°
RAAN44.7213°
Arg. of periapsis83.5742°
True anomaly276.52757°
Mean anomaly276.5435°
Eccentric anomaly276.53554°
Mean motion3.92406 °/min
BSTAR-0.000025743
Orbital period91.74 mins
Loading maneuver chart data...
Loading historical data...
Loading historical data...
Loading historical data...
Loading historical data...
Loading historical data...
Loading historical data...
Loading historical data...

STARLINK-11270 Visibility forecast

Observer location: undefined°, undefined

Span
Click to sort rows by Start time (UTC) header in descending order
Start Az.
Max El. time (UTC)
Max El. Az.
Max El.
End time (UTC)
End Az.
4 mins2024-12-02 14:22:41.655Z301.678° NW2024-12-02 14:24:41.655Z175.165° S41.245°2024-12-02 14:26:41.655Z139.673° SSE
4 mins2024-12-03 06:51:41.655Z209.634° SW2024-12-03 06:53:41.655Z97.116° ESE37.837°2024-12-03 06:55:41.655Z58.86° ENE
|